Terminal Aerodrome Forecast
Issued by NWS

Home | Current Version | Previous Version | Graphics & Text | Print | Product List | Glossary On
Versions: 1 2 3 4 5 6 7 8 9 10 11 12 13 14 15 16 17 18 19 20 21 22 23 24 25
396
FTUS43 KLOT 051142
TAFMDW
TAF
KMDW 051142Z 0512/0612 29007KT P6SM BKN015
     FM051330 32009KT P6SM OVC010
     FM051900 30006KT P6SM SCT015 BKN150
     FM060000 24004KT P6SM OVC090
     FM061000 22009KT P6SM OVC060=

USA.gov is the U.S. government's official web portal to all federal, state and local government web resources and services.